Location: Caltech
(34.1382°N, 118.1253°W)
Time: 23:11:48
(UTC-08:00)

Cosmos 1975 - Visible Passes

Search period start: 12 December 2017 00:00
Search period end: 22 December 2017 00:00
Orbit: 543 x 564 km, 82.5° (Epoch: 12 December)

Date Brightness Start Highest point End Pass type
(mag) Time Alt. Az. Time Alt. Az. Time Alt. Az.
12 Dec 6.1 05:11:28 10° ESE 05:13:08 12° E 05:14:48 10° ENE visible
12 Dec 5.8 18:26:27 10° NW 18:29:05 17° W 18:31:44 10° SW visible
13 Dec 6.0 05:07:43 10° ESE 05:09:51 14° E 05:11:59 10° NE visible
13 Dec 6.0 18:23:29 10° NW 18:25:49 15° W 18:28:08 10° WSW visible
14 Dec 5.9 05:04:05 10° SE 05:06:34 16° E 05:09:03 10° NE visible
14 Dec 6.1 18:20:36 10° WNW 18:22:32 13° W 18:24:28 10° WSW visible
15 Dec 5.7 05:00:32 10° SE 05:03:17 18° E 05:06:03 10° NE visible
15 Dec 6.2 18:17:52 10° WNW 18:19:15 12° W 18:20:38 10° WSW visible
16 Dec 5.4 04:57:01 10° SE 05:00:01 21° E 05:03:01 10° NE visible
17 Dec 5.2 04:53:33 10° SE 04:56:44 24° E 04:59:56 10° NE visible
18 Dec 4.9 04:50:06 10° SSE 04:53:27 27° E 04:56:50 10° NNE visible
18 Dec 4.4 06:27:28 10° WSW 06:29:56 16° WNW 06:32:25 10° NW visible
19 Dec 4.7 04:46:42 10° SSE 04:50:11 30° E 04:53:42 10° NNE visible
19 Dec 4.5 06:24:36 10° WSW 06:26:43 14° WNW 06:28:51 10° NW visible
20 Dec 4.4 04:43:18 10° SSE 04:46:55 35° E 04:50:34 10° NNE visible
20 Dec 4.6 06:21:52 10° W 06:23:31 12° WNW 06:25:12 10° NW visible
21 Dec 4.1 04:39:55 10° SSE 04:43:39 40° E 04:47:24 10° NNE visible
21 Dec 4.7 06:19:22 10° W 06:20:19 11° WNW 06:21:16 10° WNW visible
